GW0206 Weather Reports


time (UTC)temp
C
wind
direction
speed
KPH
gust
KPH
rain 1hr
cm
rain 24hr
cm
rain mn
cm
humidity
%
barometer
mb
20260906060033 16 218 1.6 8.0 0.00 0.00 0.00 88 1015.9
20260906055515 16 222 3.2 8.0 0.00 0.00 0.00 87 1015.9
20260906055008 16 202 3.2 8.0 0.00 0.00 0.00 87 1015.9
20260906054516 16 215 3.2 8.0 0.00 0.00 0.00 87 1016.0
20260906054011 16 213 3.2 8.0 0.00 0.00 0.00 86 1016.0
20260906053511 16 211 3.2 8.0 0.00 0.00 0.00 86 1016.0
20260906053027 16 216 3.2 8.0 0.00 0.00 0.00 85 1016.0
20260906052518 16 214 3.2 8.0 0.00 0.00 0.00 85 1016.0
20260906052011 16 182 3.2 8.0 0.00 0.00 0.00 85 1016.0
20260906051529 16 204 3.2 8.0 0.00 0.00 0.00 84 1016.0
20260906051013 16 222 3.2 6.4 0.00 0.00 0.00 84 1015.9
20260906050515 16 208 0.0 6.4 0.00 0.00 0.00 84 1016.0
20260906050032 16 227 0.0 6.4 0.00 0.00 0.00 83 1015.9
20260906045509 16 215 3.2 9.7 0.00 0.00 0.00 83 1015.8
20260906045015 16 221 1.6 9.7 0.00 0.00 0.00 83 1015.9
20260906044534 17 227 3.2 8.0 0.00 0.00 0.00 83 1015.8
20260906044018 17 195 3.2 6.4 0.00 0.00 0.00 82 1015.9
20260906043515 17 213 3.2 6.4 0.00 0.00 0.00 82 1015.9
20260906043023 17 216 1.6 6.4 0.00 0.00 0.00 82 1015.9
20260906042512 17 227 3.2 9.7 0.00 0.00 0.00 81 1015.9
20260906042014 17 212 4.8 9.7 0.00 0.00 0.00 81 1015.9
20260906041527 17 260 1.6 8.0 0.00 0.00 0.00 81 1015.9
20260906041018 17 215 3.2 9.7 0.00 0.00 0.00 81 1016.0
20260906040516 17 212 3.2 9.7 0.00 0.00 0.00 81 1015.9
20260906040035 17 234 3.2 9.7 0.00 0.00 0.00 81 1016.0
20260906035517 17 211 0.0 9.7 0.00 0.00 0.00 81 1016.0
20260906035014 17 214 1.6 8.0 0.00 0.00 0.00 81 1015.9
20260906034542 17 217 1.6 8.0 0.00 0.00 0.00 81 1015.9
20260906034011 17 222 1.6 6.4 0.00 0.00 0.00 81 1016.0
20260906033515 17 200 1.6 8.0 0.00 0.00 0.00 80 1016.1
20260906033044 17 231 1.6 8.0 0.00 0.00 0.00 80 1016.1
20260906032511 17 225 0.0 8.0 0.00 0.00 0.00 80 1016.1
20260906032016 17 244 1.6 8.0 0.00 0.00 0.00 80 1016.0
20260906031534 17 229 3.2 8.0 0.00 0.00 0.00 79 1016.0
20260906031014 17 246 1.6 6.4 0.00 0.00 0.00 79 1016.1
20260906030516 17 214 0.0 9.7 0.00 0.00 0.00 79 1016.2
20260906030028 17 243 1.6 9.7 0.00 0.00 0.00 78 1016.1
20260906025515 18 225 3.2 8.0 0.00 0.00 0.00 78 1016.1
20260906025014 18 221 1.6 8.0 0.00 0.00 0.00 78 1016.1
20260906024537 18 209 3.2 8.0 0.00 0.00 0.00 78 1016.1
20260906024018 18 207 3.2 8.0 0.00 0.00 0.00 77 1016.0
20260906023520 18 207 3.2 8.0 0.00 0.00 0.00 77 1015.9
20260906023026 18 225 3.2 8.0 0.00 0.00 0.00 77 1016.1
20260906022515 18 215 3.2 9.7 0.00 0.00 0.00 76 1015.9
20260906022016 18 214 3.2 12.9 0.00 0.00 0.00 76 1015.8
20260906021547 18 224 3.2 12.9 0.00 0.00 0.00 75 1015.8
20260906021017 18 227 3.2 11.3 0.00 0.00 0.00 75 1015.8
20260906020515 18 222 3.2 12.9 0.00 0.00 0.00 75 1015.8
20260906020003 19 206 4.8 12.9 0.00 0.00 0.00 74 1015.7
20260906015503 19 236 1.6 8.0 0.00 0.00 0.00 74 1015.8
20260906015003 19 213 3.2 11.3 0.00 0.00 0.00 74 1015.7
20260906014507 19 229 4.8 14.5 0.00 0.00 0.00 74 1015.6
20260906014008 19 219 3.2 14.5 0.00 0.00 0.00 74 1015.6
20260906013504 19 219 1.6 8.0 0.00 0.00 0.00 73 1015.6
20260906013010 19 246 3.2 9.7 0.00 0.00 0.00 74 1015.5
20260906012503 20 250 3.2 9.7 0.00 0.00 0.00 73 1015.6
20260906012003 20 221 1.6 9.7 0.00 0.00 0.00 73 1015.6
20260906011506 20 211 1.6 9.7 0.00 0.00 0.00 72 1015.5
20260906011005 20 263 3.2 11.3 0.00 0.00 0.00 72 1015.5
20260906010508 20 228 4.8 11.3 0.00 0.00 0.00 71 1015.5
20260906010003 20 233 3.2 12.9 0.00 0.00 0.00 71 1015.6
20260906005504 20 242 3.2 12.9 0.00 0.00 0.00 71 1015.6
20260906005003 20 209 4.8 17.7 0.00 0.00 0.00 71 1015.5
20260906004502 20 182 6.4 17.7 0.00 0.00 0.00 71 1015.5
20260906004005 21 265 8.0 14.5 0.00 0.00 0.00 72 1015.5
20260906003503 21 235 6.4 14.5 0.00 0.00 0.00 73 1015.4
20260906003008 21 232 3.2 17.7 0.00 0.00 0.00 72 1015.3
20260906002502 21 221 8.0 17.7 0.00 0.00 0.00 72 1015.3
20260906002003 21 202 6.4 16.1 0.00 0.00 0.00 73 1015.2
20260906001509 22 213 6.4 16.1 0.00 0.00 0.00 73 1015.0
20260906001007 22 178 6.4 17.7 0.00 0.00 0.00 74 1014.9
20260906000503 22 211 4.8 17.7 0.00 0.00 0.00 74 1015.0
20260906000012 22 225 8.0 17.7 0.00 0.00 0.00 74 1014.9
20260905235512 22 239 6.4 17.7 0.00 0.00 0.00 75 1014.9
20260905235010 22 198 3.2 14.5 0.00 0.00 0.00 78 1014.7
20260905234507 22 276 6.4 14.5 0.00 0.00 0.00 79 1014.7
20260905234008 23 210 1.6 9.7 0.00 0.00 0.00 79 1014.7
20260905233510 23 213 1.6 16.1 0.00 0.00 0.00 78 1014.7
20260905233012 23 191 3.2 16.1 0.00 0.00 0.00 78 1014.7
20260905232505 23 225 6.4 16.1 0.00 0.00 0.00 79 1014.6
20260905232003 23 223 4.8 9.7 0.00 0.00 0.00 80 1014.5
20260905231508 23 231 3.2 12.9 0.00 0.00 0.00 80 1014.4
20260905231006 23 232 3.2 12.9 0.00 0.00 0.00 80 1014.3
20260905230507 23 267 3.2 8.0 0.00 0.00 0.00 80 1014.2
20260905230014 23 198 1.6 8.0 0.00 0.00 0.00 80 1014.3
20260905225508 23 225 4.8 8.0 0.00 0.00 0.00 79 1014.2
20260905225003 23 214 3.2 11.3 0.00 0.00 0.00 78 1014.2
20260905224521 23 238 4.8 12.9 0.00 0.00 0.00 78 1014.2
20260905224012 24 248 3.2 14.5 0.00 0.00 0.00 79 1014.1
20260905223504 24 222 6.4 14.5 0.00 0.00 0.00 79 1014.1
20260905223015 24 210 4.8 14.5 0.00 0.00 0.00 79 1014.0
20260905222513 24 211 4.8 12.9 0.00 0.00 0.00 78 1014.0
20260905222014 24 207 3.2 12.9 0.00 0.00 0.00 78 1014.0
20260905221508 24 196 3.2 12.9 0.00 0.00 0.00 79 1014.0
20260905221003 25 203 4.8 14.5 0.00 0.00 0.00 77 1014.0
20260905220504 25 182 4.8 14.5 0.00 0.00 0.00 76 1013.9
20260905220013 25 194 1.6 9.7 0.00 0.00 0.00 79 1013.9
20260905215507 25 215 3.2 12.9 0.00 0.00 0.00 78 1013.8
20260905215008 25 165 1.6 12.9 0.00 0.00 0.00 78 1013.8
20260905214517 25 246 3.2 12.9 0.00 0.00 0.00 78 1013.8
20260905214004 25 223 4.8 11.3 0.00 0.00 0.00 77 1013.8
20260905213512 25 175 3.2 14.5 0.00 0.00 0.00 77 1013.7
20260905213028 25 175 4.8 20.9 0.00 0.00 0.00 76 1013.8
20260905212512 25 270 6.4 20.9 0.00 0.00 0.00 77 1013.8
20260905212007 25 239 8.0 16.1 0.00 0.00 0.00 76 1013.6
20260905211530 25 243 4.8 16.1 0.00 0.00 0.00 76 1013.6
20260905211016 25 219 4.8 14.5 0.00 0.00 0.00 78 1013.7
20260905210517 25 229 6.4 14.5 0.00 0.00 0.00 79 1013.8
20260905210017 25 217 3.2 14.5 0.00 0.00 0.00 81 1013.8
20260905205503 24 260 4.8 16.1 0.00 0.00 0.00 80 1013.7
20260905205004 24 232 6.4 16.1 0.00 0.00 0.00 80 1013.7
20260905204511 24 212 3.2 12.9 0.00 0.00 0.00 81 1013.8
20260905204005 25 263 4.8 12.9 0.00 0.00 0.00 80 1013.9
20260905203508 25 217 4.8 12.9 0.00 0.00 0.00 79 1013.9
20260905203021 25 248 4.8 17.7 0.00 0.00 0.00 78 1013.9
20260905202508 25 198 6.4 17.7 0.00 0.00 0.00 78 1013.9
20260905202012 25 224 3.2 9.7 0.00 0.00 0.00 82 1013.9
20260905201527 25 210 3.2 11.3 0.00 0.00 0.00 81 1013.9
20260905201005 25 142 4.8 11.3 0.00 0.00 0.00 82 1014.0
20260905200509 24 220 1.6 6.4 0.00 0.00 0.00 85 1014.0
20260905200033 24 162 1.6 6.4 0.00 0.00 0.00 84 1014.2
20260905195515 24 215 0.0 4.8 0.00 0.00 0.00 83 1014.1
20260905195007 24 230 1.6 6.4 0.00 0.00 0.00 83 1014.2
20260905194526 24 202 0.0 6.4 0.00 0.00 0.00 83 1014.3
20260905194007 24 204 0.0 9.7 0.00 0.00 0.00 82 1014.2
20260905193504 24 279 3.2 12.9 0.00 0.00 0.00 82 1014.2
20260905193019 24 242 6.4 12.9 0.00 0.00 0.00 81 1014.2
20260905192510 25 231 6.4 12.9 0.00 0.00 0.00 81 1014.2
20260905192009 25 211 4.8 14.5 0.00 0.00 0.00 79 1014.2
20260905191518 25 217 6.4 14.5 0.00 0.00 0.00 81 1014.3
20260905191010 25 201 1.6 6.4 0.00 0.00 0.00 81 1014.4
20260905190514 25 194 1.6 9.7 0.00 0.00 0.00 82 1014.4
20260905190032 25 211 4.8 9.7 0.00 0.00 0.00 83 1014.3
20260905185507 25 201 1.6 6.4 0.00 0.00 0.00 84 1014.4
20260905185010 25 138 1.6 6.4 0.00 0.00 0.00 83 1014.4
20260905184531 25 219 3.2 6.4 0.00 0.00 0.00 82 1014.5
20260905184016 25 211 3.2 8.0 0.00 0.00 0.00 81 1014.5
20260905183514 25 239 3.2 8.0 0.00 0.00 0.00 82 1014.6
20260905183033 25 215 3.2 8.0 0.00 0.00 0.00 81 1014.6
20260905182519 25 222 1.6 9.7 0.00 0.00 0.00 81 1014.7
20260905182010 25 232 4.8 9.7 0.00 0.00 0.00 80 1014.7
20260905181524 25 217 3.2 9.7 0.00 0.00 0.00 81 1014.6
20260905181013 25 256 3.2 9.7 0.00 0.00 0.00 80 1014.5
20260905180509 25 211 3.2 9.7 0.00 0.00 0.00 81 1014.6
20260905180024 25 236 1.6 14.5 0.00 0.00 0.00 80 1014.6
20260905175513 25 194 4.8 16.1 0.00 0.00 0.00 80 1014.7
20260905175015 25 227 3.2 16.1 0.00 0.00 0.00 83 1014.7
20260905174530 25 236 8.0 14.5 0.00 0.00 0.00 83 1014.7
20260905174010 24 282 3.2 14.5 0.00 0.00 0.00 85 1014.7
20260905173514 24 223 3.2 14.5 0.00 0.00 0.00 84 1014.8
20260905173033 24 211 1.6 14.5 0.00 0.00 0.00 84 1015.0
20260905172508 25 225 6.4 14.5 0.00 0.00 0.00 84 1015.0
20260905172018 25 244 8.0 14.5 0.00 0.00 0.00 83 1014.9
20260905171536 24 243 1.6 8.0 0.00 0.00 0.00 85 1014.9
20260905171018 24 197 0.0 4.8 0.00 0.00 0.00 91 1014.9
20260905170507 23 202 0.0 4.8 0.00 0.00 0.00 86 1014.9
20260905170009 23 229 1.6 6.4 0.00 0.00 0.00 89 1015.0
20260905165506 23 240 1.6 6.4 0.00 0.00 0.00 87 1015.1
20260905165012 23 221 0.0 4.8 0.00 0.00 0.00 86 1015.1
20260905164511 23 223 1.6 4.8 0.00 0.00 0.00 85 1015.2
20260905164005 23 278 1.6 4.8 0.00 0.00 0.00 85 1015.2
20260905163503 23 211 0.0 1.6 0.00 0.00 0.00 85 1015.2
20260905163009 23 126 0.0 1.6 0.00 0.00 0.00 86 1015.2
20260905162505 23 126 0.0 1.6 0.00 0.00 0.00 86 1015.3
20260905162006 23 126 0.0 4.8 0.00 0.00 0.00 88 1015.3
20260905161512 23 126 0.0 4.8 0.00 0.00 0.00 86 1015.4
20260905161010 23 209 0.0 3.2 0.00 0.00 0.00 86 1015.4
20260905160503 23 209 0.0 3.2 0.00 0.00 0.00 85 1015.4
20260905160025 23 209 0.0 3.2 0.00 0.00 0.00 86 1015.5
20260905155509 23 321 0.0 3.2 0.00 0.00 0.00 86 1015.5
20260905155009 23 302 0.0 4.8 0.00 0.00 0.00 85 1015.5
20260905154508 23 222 0.0 4.8 0.00 0.00 0.00 86 1015.4
20260905154009 23 257 0.0 6.4 0.00 0.00 0.00 85 1015.4
20260905153512 23 246 0.0 6.4 0.00 0.00 0.00 86 1015.3
20260905153005 23 281 0.0 6.4 0.00 0.03 0.00 85 1015.3
20260905152503 23 229 0.0 4.8 0.00 0.03 0.00 86 1015.4
20260905152003 23 186 0.0 4.8 0.00 0.03 0.00 85 1015.4
20260905151512 23 186 0.0 4.8 0.00 0.05 0.00 86 1015.3
20260905151003 23 274 0.0 3.2 0.00 0.08 0.00 86 1015.2
20260905150505 23 274 0.0 8.0 0.00 0.08 0.00 87 1015.2
20260905150017 23 228 1.6 11.3 0.00 0.08 0.00 87 1015.0
20260905145510 23 239 4.8 11.3 0.00 0.08 0.00 88 1015.0
20260905145008 23 288 0.0 4.8 0.00 0.10 0.00 90 1015.0
20260905144523 22 307 1.6 6.4 0.00 0.10 0.00 91 1015.0
20260905144011 22 259 1.6 6.4 0.00 0.13 0.00 93 1015.0
20260905143510 22 259 0.0 4.8 0.00 0.13 0.00 92 1015.0
20260905143031 22 240 3.2 4.8 0.00 0.13 0.00 94 1015.0
20260905142512 21 227 0.0 3.2 0.00 0.15 0.00 94 1015.0
20260905142016 21 219 0.0 3.2 0.00 0.18 0.00 95 1015.0
20260905141516 21 275 0.0 3.2 0.00 0.20 0.00 95 1015.0
20260905141009 21 275 0.0 3.2 0.00 0.20 0.00 96 1014.9
20260905140504 21 275 1.6 4.8 0.00 0.23 0.00 97 1014.9
20260905140011 21 275 0.0 4.8 0.00 0.23 0.00 97 1014.9
20260905135507 21 275 1.6 4.8 0.00 0.23 0.00 98 1014.9
20260905135012 21 275 1.6 4.8 0.00 0.25 0.00 98 1014.9
20260905134519 20 275 1.6 6.4 0.00 0.25 0.00 98 1014.9
20260905134008 20 236 1.6 6.4 0.00 0.28 0.00 98 1015.0
20260905133511 20 299 1.6 4.8 0.00 0.33 0.00 98 1014.9
20260905133027 20 251 0.0 4.8 0.00 0.33 0.00 98 1015.0
20260905132514 20 251 0.0 4.8 0.00 0.33 0.00 98 1015.0
20260905132006 20 251 1.6 4.8 0.00 0.33 0.00 98 1015.1
20260905131535 20 246 0.0 4.8 0.00 0.33 0.00 99 1015.2
20260905131015 20 270 0.0 1.6 0.00 0.33 0.00 99 1015.2
20260905130506 20 270 0.0 3.2 0.00 0.33 0.00 99 1015.2
20260905130022 20 270 1.6 4.8 0.00 0.33 0.00 98 1015.2
20260905125503 20 270 1.6 6.4 0.00 0.33 0.00 98 1015.4
20260905125009 20 237 1.6 6.4 0.00 0.33 0.00 98 1015.3
20260905124520 20 287 3.2 8.0 0.00 0.33 0.00 99 1015.4
20260905124009 20 223 3.2 11.3 0.00 0.33 0.00 98 1015.5
20260905123508 20 257 4.8 11.3 0.00 0.33 0.00 98 1015.5
20260905123025 20 243 3.2 8.0 0.00 0.33 0.00 98 1015.5
20260905122513 20 250 1.6 8.0 0.00 0.33 0.00 98 1015.4
20260905122014 20 252 4.8 8.0 0.00 0.33 0.00 98 1015.3
20260905121526 20 239 3.2 9.7 0.00 0.33 0.00 98 1015.2
20260905121006 20 240 4.8 9.7 0.00 0.33 0.00 98 1015.1
20260905120509 20 257 0.0 9.7 0.00 0.33 0.00 98 1015.0
20260905120030 20 240 3.2 9.7 0.00 0.33 0.00 98 1015.0
20260905115518 20 228 3.2 12.9 0.00 0.33 0.00 98 1015.1
20260905115009 20 238 3.2 12.9 0.00 0.33 0.00 98 1015.0
20260905114530 20 238 3.2 9.7 0.00 0.33 0.00 98 1014.9
20260905114017 20 247 3.2 8.0 0.00 0.33 0.00 98 1014.9
20260905113508 20 253 4.8 9.7 0.00 0.33 0.00 98 1014.7
20260905113020 20 269 3.2 9.7 0.00 0.33 0.00 98 1014.6
20260905112509 20 273 1.6 6.4 0.00 0.33 0.00 98 1014.6
20260905112009 20 261 3.2 6.4 0.00 0.33 0.00 98 1014.4
20260905111518 20 264 3.2 6.4 0.00 0.33 0.00 98 1014.4
20260905111017 20 231 0.0 4.8 0.00 0.33 0.00 98 1014.6
20260905110513 20 231 0.0 4.8 0.00 0.33 0.00 98 1014.6
20260905110008 20 198 1.6 4.8 0.00 0.33 0.00 99 1014.5
20260905105508 20 155 0.0 3.2 0.00 0.33 0.00 99 1014.4
20260905105004 20 155 0.0 3.2 0.00 0.33 0.00 98 1014.4
20260905104512 20 155 0.0 1.6 0.00 0.33 0.00 98 1014.7
20260905104005 20 155 0.0 1.6 0.00 0.33 0.00 98 1014.8
20260905103504 20 155 0.0 3.2 0.00 0.33 0.00 98 1015.0
20260905103009 20 155 0.0 3.2 0.00 0.33 0.00 98 1015.2
20260905102503 20 162 0.0 3.2 0.00 0.33 0.00 98 1015.3
20260905102005 20 159 0.0 3.2 0.00 0.33 0.00 98 1015.4
20260905101506 20 146 0.0 3.2 0.00 0.33 0.00 98 1015.4
20260905101002 20 146 0.0 3.2 0.00 0.33 0.00 98 1015.4
20260905100504 20 150 0.0 6.4 0.00 0.33 0.00 98 1015.4
20260905100007 20 123 1.6 6.4 0.00 0.33 0.00 98 1015.5
20260905095506 20 124 1.6 4.8 0.00 0.33 0.00 98 1015.3
20260905095004 20 113 1.6 4.8 0.00 0.33 0.00 98 1015.2
20260905094508 20 113 1.6 4.8 0.00 0.33 0.00 98 1015.0
20260905094003 20 105 0.0 3.2 0.00 0.33 0.00 98 1014.9
20260905093507 20 105 0.0 4.8 0.00 0.33 0.00 98 1014.7
20260905093014 20 105 1.6 4.8 0.00 0.33 0.00 98 1014.5
20260905092509 20 211 0.0 4.8 0.00 0.33 0.00 98 1014.2
20260905092003 20 211 1.6 4.8 0.00 0.33 0.00 98 1014.1
20260905091514 20 211 0.0 3.2 0.00 0.33 0.00 98 1014.0
20260905091007 20 211 0.0 4.8 0.00 0.33 0.00 98 1014.0
20260905090506 20 211 0.0 8.0 0.00 0.33 0.00 98 1013.9
20260905090010 20 215 1.6 9.7 0.00 0.33 0.00 98 1013.8
20260905085509 20 227 4.8 9.7 0.00 0.33 0.00 98 1013.8
20260905085008 20 207 0.0 0.0 0.00 0.33 0.00 98 1014.1
20260905084504 20 207 0.0 0.0 0.00 0.33 0.00 98 1014.0
20260905084003 20 207 0.0 0.0 0.00 0.33 0.00 98 1014.0
20260905083504 20 207 0.0 0.0 0.00 0.33 0.00 98 1013.8
20260905083012 20 207 0.0 0.0 0.00 0.33 0.00 98 1013.7
20260905082502 20 207 0.0 0.0 0.00 0.33 0.00 98 1013.6
20260905082003 20 207 0.0 0.0 0.00 0.33 0.00 98 1013.4
20260905081516 20 207 0.0 0.0 0.00 0.33 0.00 98 1013.7
20260905081009 20 207 0.0 0.0 0.00 0.33 0.00 98 1013.8
20260905080503 20 207 0.0 0.0 0.00 0.33 0.00 98 1013.9
20260905080020 20 207 0.0 0.0 0.00 0.33 0.00 98 1014.0
20260905075508 20 207 0.0 0.0 0.00 0.33 0.00 97 1014.0
20260905075003 20 207 0.0 3.2 0.00 0.33 0.00 97 1014.1
20260905074517 20 207 0.0 3.2 0.00 0.33 0.00 97 1014.2
20260905074007 20 207 1.6 3.2 0.00 0.33 0.00 98 1014.0
20260905073513 20 207 0.0 3.2 0.00 0.33 0.00 97 1014.0
20260905073012 20 207 0.0 3.2 0.00 0.33 0.00 97 1014.0
20260905072504 20 207 1.6 3.2 0.00 0.33 0.00 97 1014.1
20260905072005 20 207 0.0 1.6 0.00 0.33 0.00 97 1014.3
20260905071514 20 207 0.0 1.6 0.00 0.33 0.00 97 1014.2
20260905071007 20 207 0.0 3.2 0.00 0.33 0.00 97 1014.2
20260905070504 20 207 0.0 4.8 0.00 0.33 0.00 98 1014.3
20260905070028 20 207 0.0 4.8 0.00 0.33 0.00 98 1014.3
20260905065503 20 198 1.6 3.2 0.00 0.33 0.00 97 1014.3
20260905065005 20 159 0.0 3.2 0.00 0.33 0.00 97 1014.4
20260905064525 20 101 0.0 6.4 0.00 0.33 0.00 97 1014.5
20260905064009 20 101 0.0 6.4 0.00 0.33 0.00 97 1014.7
20260905063507 20 119 3.2 4.8 0.00 0.33 0.00 98 1014.9
20260905063023 20 312 1.6 4.8 0.00 0.33 0.00 97 1014.6
20260905062511 20 312 0.0 4.8 0.00 0.33 0.00 98 1014.2
20260905062011 20 29 0.0 3.2 0.00 0.33 0.00 97 1014.4
20260905061518 20 29 0.0 1.6 0.00 0.33 0.00 97 1014.7
20260905061013 20 29 0.0 1.6 0.00 0.33 0.00 97 1014.8
20260905060507 20 29 0.0 0.0 0.00 0.33 0.00 97 1014.8